| time (UTC) | temp F | wind direction | speed MPH | gust MPH | rain 1hr in | rain 24hr in | rain mn in | humidity % | barometer mb |
| 20260509222615 | 71 | 352 | 0.0 | 1.0 | 0.00 | 0.00 | 0.00 | 62 | 1005.0 |
| 20260509222110 | 71 | 322 | 0.0 | 1.0 | 0.00 | 0.00 | 0.00 | 62 | 1005.0 |
| 20260509221606 | 71 | 15 | 0.0 | 2.0 | 0.00 | 0.00 | 0.00 | 61 | 1005.3 |
| 20260509221103 | 71 | 17 | 1.0 | 1.0 | 0.00 | 0.00 | 0.00 | 63 | 1005.1 |
| 20260509220558 | 72 | 116 | 1.0 | 1.0 | 0.00 | 0.00 | 0.00 | 62 | 1004.9 |
| 20260509220055 | 72 | 58 | 1.0 | 2.0 | 0.00 | 0.00 | 0.00 | 62 | 1005.2 |
| 20260509215550 | 71 | 6 | 0.0 | 1.0 | 0.00 | 0.00 | 0.00 | 63 | 1004.9 |
| 20260509215048 | 71 | 62 | 0.0 | 2.0 | 0.00 | 0.00 | 0.00 | 65 | 1005.0 |
| 20260509214545 | 71 | 51 | 0.0 | 2.0 | 0.00 | 0.00 | 0.00 | 64 | 1005.0 |
| 20260509214042 | 71 | 110 | 1.0 | 2.0 | 0.00 | 0.00 | 0.00 | 65 | 1005.1 |
| 20260509213538 | 71 | 229 | 0.0 | 2.0 | 0.00 | 0.00 | 0.00 | 65 | 1004.8 |
| 20260509213035 | 70 | 79 | 0.0 | 2.0 | 0.00 | 0.00 | 0.00 | 65 | 1005.0 |
| 20260509212532 | 71 | 37 | 0.0 | 2.0 | 0.00 | 0.00 | 0.00 | 65 | 1004.9 |
| 20260509212029 | 70 | 49 | 0.0 | 2.0 | 0.00 | 0.00 | 0.00 | 64 | 1004.9 |
| 20260509211524 | 69 | 50 | 0.0 | 1.0 | 0.00 | 0.00 | 0.00 | 65 | 1004.9 |
| 20260509211021 | 70 | 84 | 0.0 | 2.0 | 0.00 | 0.00 | 0.00 | 64 | 1004.8 |
| 20260509210518 | 70 | 327 | 2.0 | 2.0 | 0.00 | 0.00 | 0.00 | 64 | 1004.6 |
| 20260509210015 | 70 | 20 | 0.0 | 2.0 | 0.00 | 0.00 | 0.00 | 64 | 1004.7 |
| 20260509205509 | 71 | 325 | 0.0 | 1.0 | 0.00 | 0.00 | 0.00 | 63 | 1004.7 |
| 20260509205005 | 72 | 349 | 0.0 | 2.0 | 0.00 | 0.00 | 0.00 | 62 | 1004.6 |
| 20260509204501 | 73 | 5 | 0.0 | 1.0 | 0.00 | 0.00 | 0.00 | 59 | 1004.5 |
| 20260509203957 | 71 | 6 | 0.0 | 1.0 | 0.00 | 0.00 | 0.00 | 57 | 1004.7 |
| 20260509203453 | 73 | 34 | 0.0 | 1.0 | 0.00 | 0.00 | 0.00 | 55 | 1004.6 |
| 20260509202951 | 72 | 235 | 0.0 | 2.0 | 0.00 | 0.00 | 0.00 | 55 | 1004.6 |
| 20260509202447 | 72 | 173 | 0.0 | 0.0 | 0.00 | 0.00 | 0.00 | 55 | 1004.9 |
| 20260509201942 | 72 | 173 | 0.0 | 0.0 | 0.00 | 0.00 | 0.00 | 55 | 1004.8 |
| 20260509201438 | 72 | 6 | 0.0 | 0.0 | 0.00 | 0.00 | 0.00 | 54 | 1004.7 |
| 20260509200935 | 73 | 142 | 2.0 | 2.0 | 0.00 | 0.00 | 0.00 | 54 | 1005.0 |
| 20260509200434 | 73 | 329 | 0.0 | 0.0 | 0.00 | 0.00 | 0.00 | 56 | 1005.0 |
| 20260509195932 | 73 | 299 | 0.0 | 2.0 | 0.00 | 0.00 | 0.00 | 53 | 1005.0 |
| 20260509195427 | 74 | 269 | 0.0 | 1.0 | 0.00 | 0.00 | 0.00 | 50 | 1005.0 |
| 20260509194920 | 74 | 91 | 0.0 | 2.0 | 0.00 | 0.00 | 0.00 | 51 | 1005.3 |
| 20260509194416 | 75 | 36 | 2.0 | 3.0 | 0.00 | 0.00 | 0.00 | 50 | 1005.2 |
| 20260509193914 | 75 | 75 | 0.0 | 2.0 | 0.00 | 0.00 | 0.00 | 51 | 1005.3 |
| 20260509193413 | 75 | 237 | 1.0 | 3.0 | 0.00 | 0.00 | 0.00 | 51 | 1005.3 |
| 20260509192909 | 75 | 116 | 2.0 | 2.0 | 0.00 | 0.00 | 0.00 | 51 | 1005.2 |
| 20260509192405 | 75 | 50 | 0.0 | 2.0 | 0.00 | 0.00 | 0.00 | 52 | 1005.6 |
| 20260509191901 | 75 | 325 | 2.0 | 2.0 | 0.00 | 0.00 | 0.00 | 52 | 1005.6 |
| 20260509191357 | 74 | 89 | 0.0 | 3.0 | 0.00 | 0.00 | 0.00 | 52 | 1005.6 |
| 20260509190853 | 73 | 74 | 1.0 | 2.0 | 0.00 | 0.00 | 0.00 | 53 | 1005.5 |
| 20260509190350 | 72 | 30 | 1.0 | 3.0 | 0.00 | 0.00 | 0.00 | 53 | 1005.5 |
| 20260509185848 | 72 | 17 | 2.0 | 3.0 | 0.00 | 0.00 | 0.00 | 53 | 1006.1 |
| 20260509185344 | 73 | 311 | 0.0 | 4.0 | 0.00 | 0.00 | 0.00 | 53 | 1005.9 |
| 20260509184841 | 72 | 292 | 0.0 | 2.0 | 0.00 | 0.00 | 0.00 | 53 | 1006.1 |
| 20260509184338 | 72 | 188 | 1.0 | 1.0 | 0.00 | 0.00 | 0.00 | 52 | 1006.1 |
| 20260509183835 | 72 | 14 | 0.0 | 2.0 | 0.00 | 0.00 | 0.00 | 54 | 1006.4 |
| 20260509183330 | 71 | 172 | 1.0 | 2.0 | 0.00 | 0.00 | 0.00 | 53 | 1006.5 |
| 20260509182826 | 72 | 5 | 2.0 | 3.0 | 0.00 | 0.00 | 0.00 | 51 | 1006.5 |
| 20260509182323 | 73 | 150 | 0.0 | 3.0 | 0.00 | 0.00 | 0.00 | 51 | 1006.5 |
| 20260509181821 | 73 | 191 | 2.0 | 3.0 | 0.00 | 0.00 | 0.00 | 52 | 1006.5 |
| 20260509181318 | 73 | 81 | 1.0 | 4.0 | 0.00 | 0.00 | 0.00 | 52 | 1006.6 |
| 20260509180815 | 72 | 216 | 0.0 | 3.0 | 0.00 | 0.00 | 0.00 | 54 | 1006.6 |
| 20260509180311 | 72 | 140 | 2.0 | 3.0 | 0.00 | 0.00 | 0.00 | 54 | 1006.5 |
| 20260509175808 | 72 | 233 | 1.0 | 2.0 | 0.00 | 0.00 | 0.00 | 54 | 1006.6 |
| 20260509175306 | 72 | 51 | 2.0 | 5.0 | 0.00 | 0.00 | 0.00 | 54 | 1006.9 |
| 20260509174800 | 72 | 89 | 0.0 | 2.0 | 0.00 | 0.00 | 0.00 | 55 | 1006.7 |
| 20260509174256 | 71 | 219 | 1.0 | 3.0 | 0.00 | 0.00 | 0.00 | 56 | 1007.0 |
| 20260509173752 | 71 | 99 | 2.0 | 3.0 | 0.00 | 0.00 | 0.00 | 57 | 1006.8 |
| 20260509173247 | 70 | 41 | 0.0 | 4.0 | 0.00 | 0.00 | 0.00 | 57 | 1006.7 |
| 20260509172744 | 70 | 123 | 0.0 | 3.0 | 0.00 | 0.00 | 0.00 | 56 | 1006.8 |
| 20260509172241 | 70 | 217 | 1.0 | 3.0 | 0.00 | 0.00 | 0.00 | 57 | 1007.1 |
| 20260509171736 | 70 | 135 | 1.0 | 3.0 | 0.00 | 0.00 | 0.00 | 56 | 1007.1 |
| 20260509171232 | 70 | 108 | 2.0 | 4.0 | 0.00 | 0.00 | 0.00 | 57 | 1007.0 |
| 20260509170729 | 70 | 153 | 1.0 | 3.0 | 0.00 | 0.00 | 0.00 | 55 | 1007.0 |
| 20260509170225 | 70 | 220 | 0.0 | 4.0 | 0.00 | 0.00 | 0.00 | 55 | 1007.3 |
| 20260509165724 | 69 | 102 | 2.0 | 4.0 | 0.00 | 0.00 | 0.00 | 55 | 1006.8 |
| 20260509165219 | 70 | 265 | 1.0 | 4.0 | 0.00 | 0.00 | 0.00 | 56 | 1007.2 |
| 20260509164715 | 70 | 161 | 2.0 | 3.0 | 0.00 | 0.00 | 0.00 | 55 | 1007.2 |
| 20260509164211 | 70 | 41 | 1.0 | 3.0 | 0.00 | 0.00 | 0.00 | 58 | 1007.0 |
| 20260509163709 | 70 | 120 | 3.0 | 4.0 | 0.00 | 0.00 | 0.00 | 57 | 1007.3 |
| 20260509163205 | 70 | 114 | 3.0 | 5.0 | 0.00 | 0.00 | 0.00 | 57 | 1007.0 |
| 20260509162703 | 69 | 269 | 0.0 | 5.0 | 0.00 | 0.00 | 0.00 | 59 | 1007.4 |
| 20260509162158 | 69 | 115 | 2.0 | 4.0 | 0.00 | 0.00 | 0.00 | 59 | 1007.4 |
| 20260509161654 | 69 | 188 | 3.0 | 4.0 | 0.00 | 0.00 | 0.00 | 59 | 1007.4 |
| 20260509161150 | 68 | 76 | 1.0 | 4.0 | 0.00 | 0.00 | 0.00 | 59 | 1007.4 |
| 20260509160645 | 69 | 99 | 3.0 | 3.0 | 0.00 | 0.00 | 0.00 | 60 | 1007.5 |
| 20260509160141 | 68 | 15 | 2.0 | 4.0 | 0.00 | 0.00 | 0.00 | 60 | 1007.7 |
| 20260509155638 | 68 | 107 | 2.0 | 5.0 | 0.00 | 0.00 | 0.00 | 60 | 1007.7 |
| 20260509155134 | 68 | 115 | 3.0 | 5.0 | 0.00 | 0.00 | 0.00 | 61 | 1007.9 |
| 20260509154630 | 69 | 38 | 3.0 | 3.0 | 0.00 | 0.00 | 0.00 | 60 | 1007.7 |
| 20260509154127 | 69 | 113 | 3.0 | 3.0 | 0.00 | 0.00 | 0.00 | 61 | 1007.8 |
| 20260509153624 | 68 | 15 | 2.0 | 2.0 | 0.00 | 0.00 | 0.00 | 63 | 1007.7 |
| 20260509153121 | 67 | 75 | 2.0 | 2.0 | 0.00 | 0.00 | 0.00 | 64 | 1007.6 |
| 20260509152616 | 67 | 98 | 1.0 | 3.0 | 0.00 | 0.00 | 0.00 | 64 | 1007.8 |
| 20260509152114 | 67 | 139 | 2.0 | 4.0 | 0.00 | 0.00 | 0.00 | 64 | 1007.8 |
| 20260509151610 | 67 | 48 | 3.0 | 5.0 | 0.00 | 0.00 | 0.00 | 64 | 1008.0 |
| 20260509151108 | 67 | 101 | 3.0 | 3.0 | 0.00 | 0.00 | 0.00 | 64 | 1008.1 |
| 20260509150605 | 66 | 42 | 2.0 | 3.0 | 0.00 | 0.00 | 0.00 | 64 | 1008.3 |
| 20260509150104 | 66 | 232 | 3.0 | 3.0 | 0.00 | 0.00 | 0.00 | 64 | 1008.2 |
| 20260509145559 | 67 | 168 | 2.0 | 3.0 | 0.00 | 0.00 | 0.00 | 64 | 1008.5 |
| 20260509145054 | 67 | 83 | 0.0 | 4.0 | 0.00 | 0.00 | 0.00 | 63 | 1008.5 |
| 20260509144552 | 67 | 145 | 0.0 | 3.0 | 0.00 | 0.00 | 0.00 | 64 | 1008.6 |
| 20260509144049 | 67 | 136 | 0.0 | 3.0 | 0.00 | 0.00 | 0.00 | 64 | 1008.7 |
| 20260509143546 | 66 | 235 | 2.0 | 5.0 | 0.00 | 0.00 | 0.00 | 65 | 1008.5 |
| 20260509143044 | 66 | 79 | 2.0 | 3.0 | 0.00 | 0.00 | 0.00 | 66 | 1008.6 |
| 20260509142538 | 66 | 98 | 1.0 | 4.0 | 0.00 | 0.00 | 0.00 | 66 | 1008.8 |
| 20260509142035 | 65 | 251 | 2.0 | 4.0 | 0.00 | 0.00 | 0.00 | 67 | 1008.8 |
| 20260509141526 | 65 | 12 | 1.0 | 3.0 | 0.00 | 0.00 | 0.00 | 70 | 1008.8 |
| 20260509141023 | 64 | 147 | 0.0 | 2.0 | 0.00 | 0.00 | 0.00 | 69 | 1008.9 |
| 20260509140519 | 65 | 115 | 0.0 | 5.0 | 0.00 | 0.00 | 0.00 | 68 | 1008.8 |
| 20260509140018 | 65 | 189 | 3.0 | 6.0 | 0.00 | 0.00 | 0.00 | 69 | 1008.9 |
| 20260509135514 | 64 | 101 | 1.0 | 2.0 | 0.00 | 0.00 | 0.00 | 70 | 1008.9 |
| 20260509135012 | 64 | 150 | 0.0 | 3.0 | 0.00 | 0.00 | 0.00 | 68 | 1009.0 |
| 20260509134509 | 65 | 205 | 0.0 | 2.0 | 0.00 | 0.00 | 0.00 | 70 | 1009.0 |
| 20260509134007 | 64 | 29 | 0.0 | 2.0 | 0.00 | 0.00 | 0.00 | 70 | 1009.0 |
| 20260509133503 | 64 | 97 | 1.0 | 3.0 | 0.00 | 0.00 | 0.00 | 70 | 1009.0 |
| 20260509133001 | 64 | 55 | 2.0 | 3.0 | 0.00 | 0.00 | 0.00 | 71 | 1009.1 |
| 20260509132459 | 64 | 145 | 1.0 | 4.0 | 0.00 | 0.00 | 0.00 | 71 | 1008.8 |
| 20260509131956 | 64 | 101 | 2.0 | 2.0 | 0.00 | 0.00 | 0.00 | 71 | 1009.0 |
| 20260509131453 | 64 | 229 | 1.0 | 3.0 | 0.00 | 0.00 | 0.00 | 71 | 1008.9 |
| 20260509130949 | 63 | 129 | 1.0 | 2.0 | 0.00 | 0.00 | 0.00 | 73 | 1008.8 |
| 20260509130444 | 63 | 146 | 2.0 | 3.0 | 0.00 | 0.00 | 0.00 | 73 | 1008.8 |
| 20260509125943 | 63 | 57 | 2.0 | 4.0 | 0.00 | 0.00 | 0.00 | 74 | 1009.1 |
| 20260509125439 | 62 | 153 | 0.0 | 2.0 | 0.00 | 0.00 | 0.00 | 75 | 1008.8 |
| 20260509124934 | 62 | 150 | 1.0 | 3.0 | 0.00 | 0.00 | 0.00 | 76 | 1009.0 |
| 20260509124432 | 61 | 109 | 2.0 | 3.0 | 0.00 | 0.00 | 0.00 | 76 | 1009.2 |
| 20260509123929 | 61 | 83 | 2.0 | 3.0 | 0.00 | 0.00 | 0.00 | 77 | 1009.2 |
| 20260509123426 | 61 | 96 | 2.0 | 3.0 | 0.00 | 0.00 | 0.00 | 77 | 1009.1 |
| 20260509122922 | 61 | 124 | 3.0 | 4.0 | 0.00 | 0.00 | 0.00 | 78 | 1009.0 |
| 20260509122420 | 60 | 10 | 0.0 | 3.0 | 0.00 | 0.00 | 0.00 | 78 | 1009.0 |
| 20260509121916 | 60 | 62 | 1.0 | 3.0 | 0.00 | 0.00 | 0.00 | 79 | 1009.0 |
| 20260509121413 | 60 | 116 | 2.0 | 4.0 | 0.00 | 0.00 | 0.00 | 79 | 1008.9 |
| 20260509120911 | 59 | 47 | 1.0 | 4.0 | 0.00 | 0.00 | 0.00 | 79 | 1009.0 |
| 20260509120409 | 59 | 100 | 2.0 | 3.0 | 0.00 | 0.00 | 0.00 | 79 | 1009.0 |
| 20260509115907 | 59 | 66 | 2.0 | 3.0 | 0.00 | 0.00 | 0.00 | 80 | 1009.1 |
| 20260509115404 | 59 | 112 | 3.0 | 3.0 | 0.00 | 0.00 | 0.00 | 80 | 1009.3 |
| 20260509114901 | 59 | 57 | 0.0 | 5.0 | 0.00 | 0.00 | 0.00 | 80 | 1009.1 |
| 20260509114400 | 58 | 138 | 2.0 | 4.0 | 0.00 | 0.00 | 0.00 | 81 | 1008.9 |
| 20260509113859 | 58 | 132 | 1.0 | 3.0 | 0.00 | 0.00 | 0.00 | 82 | 1009.1 |
| 20260509113355 | 58 | 38 | 2.0 | 3.0 | 0.00 | 0.00 | 0.00 | 82 | 1009.1 |
| 20260509112852 | 57 | 70 | 2.0 | 3.0 | 0.00 | 0.00 | 0.00 | 83 | 1009.0 |
| 20260509112349 | 57 | 339 | 1.0 | 3.0 | 0.00 | 0.00 | 0.00 | 83 | 1009.1 |
| 20260509111847 | 57 | 85 | 2.0 | 4.0 | 0.00 | 0.00 | 0.00 | 83 | 1008.9 |
| 20260509111343 | 57 | 139 | 2.0 | 5.0 | 0.00 | 0.00 | 0.00 | 84 | 1009.0 |
| 20260509110842 | 57 | 143 | 2.0 | 3.0 | 0.00 | 0.00 | 0.00 | 84 | 1009.1 |
| 20260509110337 | 57 | 111 | 2.0 | 4.0 | 0.00 | 0.00 | 0.00 | 84 | 1009.2 |
| 20260509105836 | 56 | 98 | 1.0 | 3.0 | 0.00 | 0.00 | 0.00 | 85 | 1009.2 |
| 20260509105333 | 56 | 122 | 1.0 | 3.0 | 0.00 | 0.00 | 0.00 | 85 | 1009.4 |
| 20260509104829 | 56 | 112 | 2.0 | 3.0 | 0.00 | 0.00 | 0.00 | 86 | 1009.2 |
| 20260509104326 | 55 | 113 | 0.0 | 3.0 | 0.00 | 0.00 | 0.00 | 86 | 1009.2 |
| 20260509103824 | 55 | 94 | 3.0 | 3.0 | 0.00 | 0.00 | 0.00 | 87 | 1009.1 |
| 20260509103321 | 55 | 108 | 1.0 | 3.0 | 0.00 | 0.00 | 0.00 | 88 | 1009.1 |
| 20260509102820 | 54 | 101 | 2.0 | 3.0 | 0.00 | 0.00 | 0.00 | 88 | 1009.3 |
| 20260509102317 | 54 | 106 | 0.0 | 2.0 | 0.00 | 0.00 | 0.00 | 89 | 1009.2 |
| 20260509101812 | 54 | 125 | 1.0 | 2.0 | 0.00 | 0.00 | 0.00 | 90 | 1009.1 |
| 20260509101309 | 53 | 119 | 0.0 | 2.0 | 0.00 | 0.00 | 0.00 | 90 | 1008.9 |
| 20260509100807 | 53 | 62 | 1.0 | 3.0 | 0.00 | 0.00 | 0.00 | 90 | 1009.1 |
| 20260509100304 | 53 | 94 | 2.0 | 2.0 | 0.00 | 0.00 | 0.00 | 90 | 1008.9 |
| 20260509095800 | 53 | 32 | 1.0 | 2.0 | 0.00 | 0.00 | 0.00 | 90 | 1009.0 |
| 20260509095258 | 53 | 13 | 1.0 | 3.0 | 0.00 | 0.00 | 0.00 | 90 | 1009.1 |
| 20260509094755 | 53 | 105 | 1.0 | 2.0 | 0.00 | 0.00 | 0.00 | 90 | 1009.0 |
| 20260509094251 | 54 | 70 | 0.0 | 2.0 | 0.00 | 0.00 | 0.00 | 89 | 1009.1 |
| 20260509093749 | 54 | 93 | 2.0 | 2.0 | 0.00 | 0.00 | 0.00 | 89 | 1009.0 |
| 20260509093246 | 54 | 74 | 1.0 | 2.0 | 0.00 | 0.00 | 0.00 | 89 | 1008.8 |
| 20260509092745 | 54 | 55 | 0.0 | 3.0 | 0.00 | 0.00 | 0.00 | 89 | 1009.1 |
| 20260509092242 | 54 | 48 | 1.0 | 2.0 | 0.00 | 0.00 | 0.00 | 88 | 1009.0 |
| 20260509091740 | 54 | 59 | 0.0 | 2.0 | 0.00 | 0.00 | 0.00 | 88 | 1009.1 |
| 20260509091236 | 54 | 39 | 1.0 | 2.0 | 0.00 | 0.00 | 0.00 | 88 | 1008.9 |
| 20260509090734 | 55 | 102 | 1.0 | 2.0 | 0.00 | 0.00 | 0.00 | 87 | 1008.9 |
| 20260509090231 | 55 | 82 | 0.0 | 2.0 | 0.00 | 0.00 | 0.00 | 87 | 1009.0 |
| 20260509085728 | 55 | 86 | 0.0 | 2.0 | 0.00 | 0.00 | 0.00 | 86 | 1008.8 |
| 20260509085225 | 55 | 214 | 0.0 | 2.0 | 0.00 | 0.00 | 0.00 | 85 | 1008.8 |
| 20260509084722 | 55 | 30 | 0.0 | 2.0 | 0.00 | 0.00 | 0.00 | 85 | 1009.0 |
| 20260509084218 | 56 | 147 | 0.0 | 2.0 | 0.00 | 0.00 | 0.00 | 84 | 1008.9 |
| 20260509083717 | 56 | 59 | 0.0 | 1.0 | 0.00 | 0.00 | 0.00 | 84 | 1008.9 |
| 20260509083213 | 56 | 191 | 0.0 | 2.0 | 0.00 | 0.00 | 0.00 | 84 | 1008.9 |
| 20260509082710 | 56 | 164 | 0.0 | 3.0 | 0.00 | 0.00 | 0.00 | 83 | 1008.9 |
| 20260509082206 | 57 | 57 | 0.0 | 2.0 | 0.00 | 0.00 | 0.00 | 82 | 1008.9 |
| 20260509081703 | 57 | 88 | 2.0 | 2.0 | 0.00 | 0.00 | 0.00 | 82 | 1009.0 |
| 20260509081200 | 57 | 35 | 0.0 | 2.0 | 0.00 | 0.00 | 0.00 | 82 | 1009.0 |
| 20260509080659 | 57 | 65 | 2.0 | 2.0 | 0.00 | 0.00 | 0.00 | 82 | 1009.1 |
| 20260509080156 | 57 | 50 | 2.0 | 3.0 | 0.00 | 0.00 | 0.00 | 81 | 1009.1 |
| 20260509075654 | 57 | 54 | 2.0 | 3.0 | 0.00 | 0.00 | 0.00 | 81 | 1009.2 |
| 20260509075151 | 57 | 89 | 2.0 | 3.0 | 0.00 | 0.00 | 0.00 | 81 | 1009.2 |
| 20260509074648 | 57 | 82 | 1.0 | 3.0 | 0.00 | 0.00 | 0.00 | 80 | 1009.1 |
| 20260509074145 | 57 | 97 | 2.0 | 3.0 | 0.00 | 0.00 | 0.00 | 80 | 1009.1 |
| 20260509073642 | 57 | 92 | 2.0 | 3.0 | 0.00 | 0.00 | 0.00 | 80 | 1009.3 |
| 20260509073138 | 57 | 93 | 2.0 | 3.0 | 0.00 | 0.00 | 0.00 | 79 | 1009.6 |
| 20260509072635 | 57 | 109 | 1.0 | 3.0 | 0.00 | 0.00 | 0.00 | 79 | 1009.4 |
| 20260509072132 | 57 | 54 | 1.0 | 3.0 | 0.00 | 0.00 | 0.00 | 79 | 1009.1 |
| 20260509071628 | 58 | 61 | 1.0 | 3.0 | 0.00 | 0.00 | 0.00 | 78 | 1009.4 |
| 20260509071126 | 58 | 88 | 0.0 | 3.0 | 0.00 | 0.00 | 0.00 | 78 | 1009.3 |
| 20260509070623 | 58 | 80 | 1.0 | 2.0 | 0.00 | 0.00 | 0.00 | 78 | 1009.3 |
| 20260509070119 | 58 | 83 | 2.0 | 2.0 | 0.00 | 0.00 | 0.00 | 77 | 1009.2 |
| 20260509065614 | 58 | 69 | 0.0 | 3.0 | 0.00 | 0.00 | 0.00 | 76 | 1009.2 |
| 20260509065111 | 58 | 339 | 0.0 | 4.0 | 0.00 | 0.00 | 0.00 | 76 | 1009.3 |
| 20260509064608 | 58 | 130 | 0.0 | 4.0 | 0.00 | 0.00 | 0.00 | 76 | 1009.3 |
| 20260509064107 | 58 | 92 | 2.0 | 2.0 | 0.00 | 0.00 | 0.00 | 75 | 1009.5 |
| 20260509063603 | 58 | 108 | 2.0 | 3.0 | 0.00 | 0.00 | 0.00 | 74 | 1009.6 |
| 20260509063059 | 59 | 116 | 2.0 | 3.0 | 0.00 | 0.00 | 0.00 | 74 | 1009.5 |
| 20260509062556 | 58 | 126 | 2.0 | 4.0 | 0.00 | 0.00 | 0.00 | 75 | 1009.7 |
| 20260509062054 | 58 | 66 | 0.0 | 3.0 | 0.00 | 0.00 | 0.00 | 75 | 1009.7 |
| 20260509061550 | 58 | 113 | 1.0 | 3.0 | 0.00 | 0.00 | 0.00 | 75 | 1009.4 |
| 20260509061048 | 58 | 133 | 2.0 | 3.0 | 0.00 | 0.00 | 0.00 | 77 | 1009.6 |
| 20260509060545 | 57 | 302 | 1.0 | 2.0 | 0.00 | 0.00 | 0.00 | 78 | 1009.6 |
| 20260509060041 | 57 | 182 | 0.0 | 3.0 | 0.00 | 0.00 | 0.00 | 78 | 1009.5 |
| 20260509055536 | 56 | 138 | 2.0 | 2.0 | 0.00 | 0.00 | 0.00 | 80 | 1009.5 |
| 20260509055033 | 56 | 95 | 1.0 | 2.0 | 0.00 | 0.00 | 0.00 | 81 | 1009.4 |
| 20260509054529 | 55 | 85 | 0.0 | 2.0 | 0.00 | 0.00 | 0.00 | 82 | 1009.5 |
| 20260509054027 | 55 | 97 | 0.0 | 3.0 | 0.00 | 0.00 | 0.00 | 83 | 1009.4 |
| 20260509053525 | 54 | 89 | 0.0 | 3.0 | 0.00 | 0.00 | 0.00 | 83 | 1009.7 |
| 20260509053016 | 54 | 148 | 0.0 | 2.0 | 0.00 | 0.00 | 0.00 | 83 | 1009.6 |
| 20260509052514 | 54 | 171 | 0.0 | 1.0 | 0.00 | 0.00 | 0.00 | 84 | 1009.6 |
| 20260509052012 | 54 | 85 | 0.0 | 2.0 | 0.00 | 0.00 | 0.00 | 83 | 1009.8 |
| 20260509051510 | 55 | 80 | 0.0 | 1.0 | 0.00 | 0.00 | 0.00 | 82 | 1009.7 |
| 20260509051007 | 55 | 155 | 0.0 | 2.0 | 0.00 | 0.00 | 0.00 | 82 | 1009.8 |
| 20260509050503 | 55 | 117 | 2.0 | 2.0 | 0.00 | 0.00 | 0.00 | 82 | 1009.9 |
| 20260509050000 | 55 | 113 | 2.0 | 3.0 | 0.00 | 0.00 | 0.00 | 82 | 1009.7 |
| 20260509045457 | 55 | 83 | 2.0 | 2.0 | 0.00 | 0.00 | 0.00 | 81 | 1009.6 |
| 20260509044954 | 55 | 124 | 2.0 | 2.0 | 0.00 | 0.00 | 0.00 | 81 | 1009.5 |
| 20260509044452 | 55 | 125 | 2.0 | 3.0 | 0.00 | 0.00 | 0.00 | 81 | 1009.9 |
| 20260509043949 | 55 | 109 | 2.0 | 3.0 | 0.00 | 0.00 | 0.00 | 81 | 1009.7 |
| 20260509043444 | 55 | 114 | 2.0 | 3.0 | 0.00 | 0.00 | 0.00 | 81 | 1009.8 |
| 20260509042940 | 55 | 95 | 0.0 | 2.0 | 0.00 | 0.00 | 0.00 | 80 | 1009.8 |
| 20260509042437 | 55 | 115 | 0.0 | 2.0 | 0.00 | 0.00 | 0.00 | 80 | 1009.9 |
| 20260509041933 | 55 | 101 | 1.0 | 3.0 | 0.00 | 0.00 | 0.00 | 79 | 1009.8 |
| 20260509041430 | 55 | 116 | 1.0 | 2.0 | 0.00 | 0.00 | 0.00 | 79 | 1010.1 |
| 20260509040928 | 55 | 89 | 0.0 | 2.0 | 0.00 | 0.00 | 0.00 | 79 | 1010.0 |
| 20260509040426 | 55 | 125 | 0.0 | 3.0 | 0.00 | 0.00 | 0.00 | 78 | 1010.1 |
| 20260509035922 | 55 | 81 | 2.0 | 2.0 | 0.00 | 0.00 | 0.00 | 78 | 1010.2 |
| 20260509035420 | 55 | 89 | 1.0 | 2.0 | 0.00 | 0.00 | 0.00 | 78 | 1010.1 |
| 20260509034916 | 55 | 195 | 2.0 | 3.0 | 0.00 | 0.00 | 0.00 | 77 | 1010.3 |
| 20260509034414 | 55 | 49 | 1.0 | 3.0 | 0.00 | 0.00 | 0.00 | 77 | 1010.2 |
| 20260509033911 | 56 | 56 | 0.0 | 2.0 | 0.00 | 0.00 | 0.00 | 76 | 1010.1 |
| 20260509033408 | 56 | 104 | 0.0 | 2.0 | 0.00 | 0.00 | 0.00 | 76 | 1010.1 |
| 20260509032904 | 56 | 126 | 2.0 | 2.0 | 0.00 | 0.00 | 0.00 | 75 | 1010.2 |
| 20260509032402 | 56 | 97 | 2.0 | 2.0 | 0.00 | 0.00 | 0.00 | 75 | 1010.1 |
| 20260509031900 | 56 | 100 | 2.0 | 2.0 | 0.00 | 0.00 | 0.00 | 75 | 1010.4 |
| 20260509031356 | 56 | 80 | 1.0 | 2.0 | 0.00 | 0.00 | 0.00 | 74 | 1010.3 |
| 20260509030854 | 56 | 133 | 0.0 | 1.0 | 0.00 | 0.00 | 0.00 | 75 | 1010.3 |
| 20260509030352 | 56 | 194 | 0.0 | 2.0 | 0.00 | 0.00 | 0.00 | 74 | 1010.2 |
| 20260509025849 | 56 | 119 | 2.0 | 2.0 | 0.00 | 0.00 | 0.00 | 73 | 1010.4 |
| 20260509025344 | 56 | 97 | 2.0 | 2.0 | 0.00 | 0.00 | 0.00 | 73 | 1010.5 |
| 20260509024839 | 56 | 129 | 0.0 | 2.0 | 0.00 | 0.00 | 0.00 | 72 | 1010.4 |
| 20260509024330 | 56 | 120 | 3.0 | 3.0 | 0.00 | 0.00 | 0.00 | 72 | 1010.2 |
| 20260509023827 | 56 | 88 | 1.0 | 2.0 | 0.00 | 0.00 | 0.00 | 72 | 1010.3 |
| 20260509023325 | 56 | 139 | 2.0 | 2.0 | 0.00 | 0.00 | 0.00 | 71 | 1010.1 |
| 20260509022821 | 56 | 120 | 0.0 | 1.0 | 0.00 | 0.00 | 0.00 | 70 | 1010.3 |
| 20260509022319 | 57 | 76 | 0.0 | 2.0 | 0.00 | 0.00 | 0.00 | 69 | 1010.4 |
| 20260509021815 | 57 | 89 | 0.0 | 1.0 | 0.00 | 0.00 | 0.00 | 69 | 1010.2 |
| 20260509021312 | 57 | 68 | 1.0 | 2.0 | 0.00 | 0.00 | 0.00 | 69 | 1010.1 |
| 20260509020810 | 57 | 50 | 0.0 | 1.0 | 0.00 | 0.00 | 0.00 | 67 | 1010.2 |
| 20260509020308 | 57 | 48 | 0.0 | 2.0 | 0.00 | 0.00 | 0.00 | 67 | 1010.2 |
| 20260509015805 | 58 | 87 | 2.0 | 3.0 | 0.00 | 0.00 | 0.00 | 66 | 1010.1 |
| 20260509015306 | 58 | 55 | 0.0 | 1.0 | 0.00 | 0.00 | 0.00 | 65 | 1010.1 |
| 20260509014759 | 58 | 106 | 2.0 | 2.0 | 0.00 | 0.00 | 0.00 | 65 | 1010.1 |
| 20260509014257 | 58 | 107 | 1.0 | 2.0 | 0.00 | 0.00 | 0.00 | 64 | 1010.0 |
| 20260509013753 | 59 | 130 | 0.0 | 2.0 | 0.00 | 0.00 | 0.00 | 62 | 1010.1 |
| 20260509013248 | 59 | 82 | 2.0 | 2.0 | 0.00 | 0.00 | 0.00 | 62 | 1009.9 |
| 20260509012745 | 59 | 74 | 2.0 | 2.0 | 0.00 | 0.00 | 0.00 | 62 | 1009.9 |
| 20260509012242 | 59 | 68 | 2.0 | 2.0 | 0.00 | 0.00 | 0.00 | 60 | 1009.9 |
| 20260509011740 | 59 | 69 | 0.0 | 2.0 | 0.00 | 0.00 | 0.00 | 61 | 1009.8 |
| 20260509011237 | 60 | 80 | 1.0 | 3.0 | 0.00 | 0.00 | 0.00 | 60 | 1009.9 |
| 20260509010735 | 60 | 82 | 2.0 | 3.0 | 0.00 | 0.00 | 0.00 | 60 | 1009.6 |
| 20260509010231 | 60 | 95 | 2.0 | 3.0 | 0.00 | 0.00 | 0.00 | 61 | 1009.6 |
| 20260509005729 | 60 | 132 | 0.0 | 2.0 | 0.00 | 0.00 | 0.00 | 62 | 1009.5 |
| 20260509005226 | 60 | 89 | 1.0 | 3.0 | 0.00 | 0.00 | 0.00 | 63 | 1009.6 |
| 20260509004726 | 60 | 84 | 0.0 | 2.0 | 0.00 | 0.00 | 0.00 | 63 | 1009.6 |
| 20260509004224 | 60 | 247 | 0.0 | 1.0 | 0.00 | 0.00 | 0.00 | 63 | 1009.8 |
| 20260509003722 | 60 | 99 | 1.0 | 2.0 | 0.00 | 0.00 | 0.00 | 64 | 1009.6 |
| 20260509003219 | 60 | 70 | 1.0 | 2.0 | 0.00 | 0.00 | 0.00 | 64 | 1009.4 |
| 20260509002716 | 60 | 38 | 0.0 | 1.0 | 0.00 | 0.00 | 0.00 | 65 | 1009.4 |
| 20260509002214 | 61 | 82 | 0.0 | 2.0 | 0.00 | 0.00 | 0.00 | 64 | 1009.7 |
| 20260509001711 | 61 | 83 | 1.0 | 2.0 | 0.00 | 0.00 | 0.00 | 62 | 1009.6 |
| 20260509001206 | 61 | 60 | 0.0 | 2.0 | 0.00 | 0.00 | 0.00 | 62 | 1009.2 |
| 20260509000704 | 61 | 71 | 1.0 | 2.0 | 0.00 | 0.00 | 0.00 | 61 | 1009.4 |
| 20260509000156 | 61 | 103 | 1.0 | 2.0 | 0.00 | 0.00 | 0.00 | 59 | 1009.1 |
| 20260508235653 | 61 | 49 | 0.0 | 1.0 | 0.00 | 0.00 | 0.00 | 56 | 1009.1 |
| 20260508235149 | 62 | 62 | 1.0 | 2.0 | 0.00 | 0.00 | 0.00 | 51 | 1009.3 |
| 20260508234646 | 62 | 50 | 0.0 | 1.0 | 0.00 | 0.00 | 0.00 | 50 | 1009.2 |
| 20260508234142 | 63 | 44 | 0.0 | 0.0 | 0.00 | 0.00 | 0.00 | 53 | 1009.0 |
| 20260508233637 | 63 | 44 | 0.0 | 1.0 | 0.00 | 0.00 | 0.00 | 55 | 1009.1 |
| 20260508233134 | 63 | 85 | 0.0 | 1.0 | 0.00 | 0.00 | 0.00 | 55 | 1008.9 |
| 20260508232631 | 63 | 68 | 0.0 | 0.0 | 0.00 | 0.00 | 0.00 | 54 | 1008.9 |
| 20260508232128 | 64 | 51 | 0.0 | 1.0 | 0.00 | 0.00 | 0.00 | 55 | 1008.7 |
| 20260508231626 | 64 | 33 | 1.0 | 1.0 | 0.00 | 0.00 | 0.00 | 56 | 1008.8 |
| 20260508231123 | 65 | 55 | 0.0 | 0.0 | 0.00 | 0.00 | 0.00 | 53 | 1008.6 |
| 20260508230619 | 65 | 110 | 0.0 | 2.0 | 0.00 | 0.00 | 0.00 | 52 | 1008.7 |
| 20260508230115 | 65 | 89 | 0.0 | 2.0 | 0.00 | 0.00 | 0.00 | 50 | 1008.9 |
| 20260508225614 | 65 | 89 | 0.0 | 2.0 | 0.00 | 0.00 | 0.00 | 50 | 1008.8 |
| 20260508225109 | 65 | 50 | 0.0 | 1.0 | 0.00 | 0.00 | 0.00 | 48 | 1008.7 |
| 20260508224607 | 65 | 102 | 2.0 | 2.0 | 0.00 | 0.00 | 0.00 | 48 | 1008.9 |
| 20260508224104 | 66 | 42 | 1.0 | 2.0 | 0.00 | 0.00 | 0.00 | 46 | 1009.1 |
| 20260508223602 | 66 | 55 | 0.0 | 2.0 | 0.00 | 0.00 | 0.00 | 46 | 1009.0 |
| 20260508223059 | 66 | 50 | 1.0 | 2.0 | 0.00 | 0.00 | 0.00 | 45 | 1009.0 |